#timestamp,LO_Frequency,Hit,StdDev 
1686902415.8,286046987.7,N
1686902435.7,286046983.7,Y
1686902455.5,286046990.8,P
1686902475.3,286046990.7,P
1686902495.2,286046987.2,P
1686902515.0,286046987.9,Y
1686902515.9,286046987.9,P
1686902535.8,286046991.8,P
1686902555.6,286046989.1,P
1686902575.4,286046989.8,Y
1686902595.3,286046997.5,P
1686902615.1,286046993.4,N
1686902635.8,286046993.7,N
1686902655.7,286046990.2,Y
1686902675.5,286046994.9,P
1686902695.4,286046991.4,P
1686902715.2,286046985.4,P
1686902735.0,286046984.4,Y
1686902735.9,286046984.4,P
1686902755.8,286046990.3,N
1686902775.6,286046988.5,P
1686902795.5,286046989.8,Y
1686902815.3,286047001.2,P
1686902835.1,286046999.2,N
1686902855.9,286046995.1,N
1686902875.7,286046991.9,N
1686902895.5,286046991.7,N
1686902915.4,286046992.9,N
1686902935.2,286046991.4,N
1686902955.1,286046993.2,N
1686902956.0,286046993.2,N
1686902975.8,286046989.8,N
1686902995.6,286046988.8,Y
1686903015.5,286046990.4,P
1686903035.3,286046993.1,P
1686903055.1,286046988.4,P
1686903075.9,286046986.8,Y
1686903095.7,286046995.7,P
1686903115.6,286046994.0,N
1686903135.4,286046989.2,P
1686903155.2,286046988.2,Y
1686903175.1,286046990.4,P
1686903176.0,286046990.4,P
1686903195.8,286046987.6,P
1686903215.7,286046984.2,Y
1686903235.5,286046991.8,P
1686903255.3,286046990.1,P
1686903275.2,286046989.4,P
1686903295.9,286046987.6,Y
1686903315.7,286046996.0,P
1686903335.6,286046994.5,N
1686903355.4,286046992.1,P
1686903375.3,286046992.0,Y
1686903395.1,286046996.8,P
1686903396.0,286046996.8,N
1686903415.8,286046995.2,N
1686903435.7,286046991.7,Y
1686903455.5,286046995.2,P
1686903475.3,286046994.8,P
1686903495.2,286046988.9,P
1686903515.0,286046987.3,Y
1686903515.9,286046987.3,P
1686903535.8,286046994.5,N
1686903555.6,286046993.5,N
1686903575.4,286046996.2,N
1686903595.3,286046993.4,N
1686903615.1,286046996.3,N
1686903635.9,286046993.8,N
1686903655.7,286046993.9,N
1686903675.5,286046993.8,N
1686903695.4,286046990.1,Y
1686903715.2,286046997.4,P
1686903735.0,286046995.0,N
1686903735.9,286046995.0,P
1686903755.8,286046996.0,N
1686903775.6,286046991.7,Y
1686903795.5,286046997.3,P
1686903815.3,286046995.1,P
1686903835.1,286046997.5,N
1686903855.9,286046997.9,N
1686903875.8,286046997.9,N
1686903895.6,286046996.7,N
1686903915.5,286047001.2,N
1686903935.3,286046999.6,N
1686903955.2,286046996.2,N
1686903975.9,286046993.9,Y
1686903995.7,286046993.8,P
1686904015.6,286046992.2,P
1686904035.4,286046990.8,P
1686904055.3,286046988.0,Y
1686904075.1,286046990.1,P
1686904076.0,286046990.1,P
1686904095.8,286046988.5,P
1686904115.7,286046986.9,Y
1686904135.5,286046997.6,P
1686904155.3,286046996.2,N
1686904175.2,286046995.6,N
1686904195.0,286046997.4,N
1686904195.9,286046997.4,N
1686904215.8,286046995.2,N
1686904235.6,286046994.8,N
1686904255.4,286046992.1,Y
1686904275.3,286046995.1,P
1686904295.1,286046992.1,P
1686904315.9,286046990.1,P
1686904335.7,286046989.2,Y
1686904355.5,286046995.6,P
1686904375.4,286046994.7,P
1686904395.2,286046992.5,P
1686904415.0,286046993.2,Y
1686904416.0,286046986.3,P
1686904435.8,286046997.1,N
1686904455.6,286046994.8,N
1686904475.5,286046990.4,N
1686904495.3,286046989.1,N
1686904515.1,286046987.5,Y
1686904535.9,286047001.3,P
1686904555.7,286047005.9,N
1686904575.6,286047010.8,N
1686904595.4,286047011.9,N
1686904615.2,286047015.6,N
1686904635.1,286047015.0,N
1686904636.0,286047015.0,N
1686904655.8,286047016.8,N
1686904675.6,286047014.1,N
1686904695.5,286047017.8,N
1686904715.3,286047019.3,N
1686904735.1,286047016.0,N
1686904755.9,286047014.1,N
1686904775.7,286047013.0,N
1686904795.6,286047008.3,N
1686904815.4,286047006.6,N
1686904835.2,286047004.6,N
1686904855.1,286047001.7,N
1686904856.0,286047001.7,N
1686904875.8,286047000.6,N
1686904895.6,286046997.0,N
1686904915.5,286046999.6,N
1686904935.3,286046998.8,N
1686904955.2,286046997.9,N
1686904975.9,286046994.5,N
1686904995.7,286046989.5,N
1686905015.6,286046987.4,N
1686905035.4,286046984.2,N
1686905055.2,286046983.3,N
1686905075.1,286046977.3,N
1686905076.0,286046977.3,N
1686905095.8,286046978.7,N
1686905115.7,286046976.6,N
1686905135.5,286046975.6,N
1686905155.3,286046971.4,N
1686905175.2,286046967.8,N
1686905195.0,286046966.5,N
1686905195.9,286046966.5,N
1686905215.8,286046967.2,N
1686905235.6,286046964.8,N
1686905255.4,286046969.6,N
1686905275.3,286046969.8,N
1686905295.1,286046970.9,N
1686905315.8,286046971.4,N
1686905335.7,286046971.8,N
1686905355.5,286046969.7,N
1686905375.4,286046970.3,N
1686905395.2,286046971.8,N
1686905415.0,286046971.6,N
1686905415.9,286046971.6,N
1686905435.8,286046969.3,N
1686905455.6,286046973.5,N
1686905475.5,286046973.5,N
1686905495.3,286046972.3,Y
1686905515.1,286046993.5,P
1686905535.9,286046997.9,N
1686905555.7,286046996.8,N
1686905575.5,286046996.5,N
1686905595.4,286046997.7,N
1686905615.2,286046996.5,N
1686905635.1,286046999.6,N
1686905636.0,286046999.6,N
1686905655.8,286046999.2,N
1686905675.6,286046997.0,N
1686905695.5,286046994.9,N
1686905715.3,286046996.7,N
1686905735.1,286046996.3,N
1686905755.9,286046996.8,N
1686905775.7,286046997.7,N
1686905795.6,286046999.9,N
1686905815.4,286047000.5,N
1686905835.2,286046997.0,N
1686905855.1,286046994.8,N
1686905856.0,286046994.8,N
1686905875.8,286046991.0,N
1686905895.6,286046992.9,N
1686905915.5,286046992.1,N
1686905935.3,286046994.8,N
1686905955.2,286046994.7,N
1686905975.9,286046997.8,N
1686905995.7,286046997.9,N
